Location: Agadir Irigdalene
(31.2522°N, 8.7797°W)
Time: 16:30:59
(UTC+00:00)

MOS 1 Rocket - Pass Details

Date: 01 December 2020
Orbit: 613 x 831 km, 97.4° (Epoch: 25 January)

Event Time Altitude Azimuth Distance (km) Brightness Sun altitude
Exits shadow 18:52:42 - 17° (NNE) 2,715 6.0 -16.9°
Reaches altitude 10° 18:53:26 10° 18° (NNE) 2,435 5.8 -17.1°
Maximum altitude 18:58:49 64° 100° (E) 901 3.6 -18.2°
Drops below altitude 10° 19:04:00 10° 181° (S) 2,347 6.2 -19.3°
Sets 19:06:18 0° 185° (S) 3,244 7.0 -19.8°
